[[{"header":{"parameterUnit":"m.s-1","parameterCategory":1,"la1":30.2991,"la2":30.254,"lo1":-89.0895,"lo2":-89.0444,"dx":0.0017,"dy":0.0017,"nx":28,"ny":28,"refTime":"2022-11-21T15:00:00:Z","depth":0,"parameterNumber":2,"parameterNumberName":"U-component_of_WINDS"},"data":[0,0,0,0,0,0,0,0,0,0,0,0,0,0,0,0,0,0,0,0,0,0,0,0,0,0,0,0,0,0,0,0,0,0,0,0,0,0,0,0,0,0,0,0,0,0,0,0,0,0,0,0,0,0,0,0,0,0,-2.0695,-2.0696,0,-2.0817,-2.0819,-2.082,-2.0785,-2.0782,-2.078,-2.0777,-2.0906,-2.0912,-2.0917,0,0,0,0,0,0,0,0,0,0,0,0,0,-2.0433,-2.0438,-2.0695,-2.0696,-2.0698,-2.0817,-2.0819,-2.0821,-2.0785,-2.0782,-2.0779,-2.0776,-2.0904,-2.0911,-2.0918,0,0,0,0,0,0,0,0,0,0,0,0,0,-2.055,-2.044,-2.0694,-2.0694,-2.0696,-2.0817,-2.0819,-2.0821,-2.0786,-2.0782,-2.0778,-2.0775,-2.0902,-2.091,-2.0919,-2.1049,0,0,-2.0945,-2.0949,0,0,0,0,0,0,0,0,-2.0544,-2.056,-2.0693,-2.0695,-2.0696,-2.0782,-2.0774,-2.0897,-2.0787,-2.0752,-2.0777,-2.0773,-2.0868,-2.0879,-2.0911,-2.1055,-2.106,-2.0946,-2.0951,-2.0955,-2.0958,0,0,0,0,0,0,0,-2.0536,-2.0555,-2.0743,-2.0695,-2.0697,-2.0689,-2.0702,-2.0797,-2.083,-2.0754,-2.0752,-2.0767,-2.0868,-2.0902,-2.0913,-2.1062,-2.0946,-2.0954,-2.0959,-2.0962,-2.1321,-2.1325,0,0,0,0,0,0,-2.0526,-2.0548,-2.0739,-2.0747,-2.0609,-2.0697,-2.0711,-2.0758,-2.0829,-2.0836,-2.077,-2.0765,-2.0889,-2.0903,-2.0918,-2.1076,-2.0955,-2.0963,-2.0968,-2.1317,-2.1322,-2.1326,0,0,0,0,0,0,-2.052,-2.0543,-2.0734,-2.0647,-2.0671,-2.0706,-2.0759,-2.0763,-2.0797,-2.084,-2.0846,-2.0799,-2.0887,-2.0906,-2.1017,-2.108,-2.0967,-2.0975,-2.1311,-2.1318,-2.1324,-2.1393,0,0,0,0,0,0,-2.0513,-2.0542,-2.059,-2.0648,-2.0675,-2.0831,-2.0763,-2.0768,-2.0812,-2.0806,-2.0869,-2.0876,-2.0885,-2.1004,-2.1025,-2.109,-2.0982,-2.1306,-2.1314,-2.1322,-2.1386,-2.1401,-2.1415,0,0,0,0,0,-2.0504,-2.0605,-2.0593,-2.0616,-2.0737,-2.0834,-2.085,-2.0858,-2.0817,-2.0867,-2.0895,-2.0874,-2.1069,-2.1016,-2.1039,-2.1108,-2.1302,-2.1312,-2.1321,-2.1379,-2.1398,-2.1415,0,0,0,0,0,0,-2.0555,-2.0613,-2.06,-2.0723,-2.0774,-2.0828,-2.0892,-2.0878,-2.0942,-2.0934,-2.0942,-2.0957,-2.1071,-2.11,-2.1039,-2.1238,-2.118,-2.1195,-2.1216,-2.1234,-2.1248,-2.124,-2.0989,0,0,0,0,0,-2.058,-2.0653,-2.07,-2.0804,-2.083,-2.0857,-2.0899,-2.0901,-2.0954,-2.0976,-2.1012,-2.1066,-2.1139,-2.1188,-2.1258,-2.1389,-2.1403,-2.1448,-2.1462,-2.1474,-2.1488,-2.1561,-2.1582,-2.1358,-2.1358,-2.1358,0,0,-2.0634,-2.0675,-2.0721,-2.0816,-2.0855,-2.0932,-2.0875,-2.0958,-2.1016,-2.0989,-2.1097,-2.1125,-2.1185,-2.1307,-2.1363,-2.1335,-2.1552,-2.1486,-2.1495,-2.1503,-2.1574,-2.1595,-2.1614,-2.1365,-2.1364,-2.1363,0,0,-2.0772,-2.0809,-2.0901,-2.0941,-2.1002,-2.1019,-2.1041,-2.1097,-2.1115,-2.1222,-2.1204,-2.1273,-2.1399,-2.1443,-2.1483,-2.1637,-2.1621,-2.166,-2.1737,-2.1809,-2.1827,-2.1843,-2.1901,-2.1921,-2.1672,-2.1673,-2.1673,0,-2.0832,-2.0946,-2.095,-2.1035,-2.1079,-2.1056,-2.115,-2.119,-2.1271,-2.1302,-2.1268,-2.1427,-2.1466,-2.1599,-2.1637,-2.1669,-2.1696,-2.1654,-2.1824,-2.184,-2.1854,-2.191,-2.1931,-2.1677,-2.1677,-2.1676,-2.1676,0,-2.1017,-2.1097,-2.1164,-2.1242,-2.1292,-2.1382,-2.1401,-2.1451,-2.1448,-2.1469,-2.158,-2.1625,-2.1705,-2.1736,-2.1734,-2.187,-2.1851,-2.1821,-2.1763,-2.188,-2.1933,-2.1954,-2.1684,-2.1682,-2.1681,-2.168,0,0,-2.1193,-2.1272,-2.1296,-2.1332,-2.1397,-2.1459,-2.1548,-2.1625,-2.167,-2.1726,-2.1802,-2.1909,-2.1881,-2.1926,-2.1929,-2.1991,-2.2114,-2.1953,-2.1955,-2.1984,-2.2269,-2.2294,-2.2318,-2.2102,-2.2106,-2.2109,-2.2265,0,-2.1338,-2.1494,-2.15,-2.1643,-2.1717,-2.1697,-2.1775,-2.1824,-2.1845,-2.1912,-2.1936,-2.2013,-2.197,-2.1997,-2.2057,-2.2086,-2.2172,-2.2075,-2.2176,-2.218,-2.2165,-2.2345,-2.2372,-2.2516,-2.2285,-2.2289,-2.2291,0,-2.1529,-2.1591,-2.1741,-2.1796,-2.1828,-2.1898,-2.197,-2.2033,-2.2089,-2.21,-2.215,-2.2144,-2.2236,-2.2173,-2.2302,-2.2235,-2.2277,-2.2297,-2.2303,-2.2315,-2.2245,-2.2365,-2.2563,-2.2586,-2.2323,-2.2321,-2.2318,0,-2.1646,-2.1766,-2.1872,-2.1903,-2.1969,-2.2019,-2.2049,-2.2101,-2.2147,-2.221,-2.2241,-2.2314,-2.2355,-2.2412,-2.2426,-2.2378,-2.2556,-2.2493,-2.257,-2.257,-2.2611,-2.2609,-2.2821,-2.2633,-2.2632,-2.2632,-2.2631,0,-2.181,-2.1903,-2.1926,-2.1991,-2.2095,-2.2102,-2.2205,-2.2232,-2.2278,-2.2349,-2.2335,-2.2403,-2.2416,-2.2487,-2.2498,-2.2605,-2.2623,-2.2636,-2.2639,-2.2639,-2.2638,-2.2669,-2.266,-2.2638,-2.2636,-2.2635,-2.2634,0,-2.1959,-2.1977,-2.2092,-2.2145,-2.2161,-2.2235,-2.2282,-2.2345,-2.2364,-2.2455,-2.2477,-2.2508,-2.259,-2.2609,-2.2708,-2.2715,-2.2843,-2.2834,-2.2824,-2.2824,-2.2901,-2.2895,-2.3143,-2.3177,-2.2964,-2.2966,-2.2968,0,-2.2063,-2.2135,-2.2196,-2.2242,-2.2274,-2.2349,-2.2396,-2.2405,-2.2455,-2.2524,-2.258,-2.2661,-2.2726,-2.2859,-2.2892,-2.2967,-2.2962,-2.3044,-2.2973,-2.2972,-2.2967,-2.2964,-2.2972,-2.3058,-2.306,-2.3062,-2.3064,0,-2.2248,-2.2254,-2.2322,-2.2394,-2.2451,-2.2508,-2.2562,-2.2601,-2.2618,-2.2675,-2.2759,-2.281,-2.291,-2.2991,-2.3067,-2.3099,-2.3086,-2.3085,-2.3107,-2.311,-2.3103,-2.3111,-2.2864,-2.308,-2.3078,-2.3077,-2.3076,-2.3076,-2.2381,-2.2444,-2.2497,-2.2574,-2.2615,-2.2667,-2.273,-2.2756,-2.2826,-2.2908,-2.2909,-2.3001,-2.3056,-2.3156,-2.3193,-2.3267,-2.3242,-2.3273,-2.3282,-2.3291,-2.3299,-2.3088,-2.328,-2.328,-2.3279,-2.3279,-2.3278,0,-2.2567,-2.26,-2.2671,-2.2747,-2.2808,-2.2787,-2.2847,-2.29,-2.2981,-2.3032,-2.3097,-2.3194,-2.3273,-2.3311,-2.339,-2.3441,-2.3437,-2.3462,-2.346,-2.3468,-2.3315,-2.3289,-2.3464,-2.3464,-2.3464,-2.3464,-2.3464,-2.3464,-2.2672,-2.2778,-2.279,-2.2918,-2.295,-2.304,-2.3076,-2.3124,-2.3166,-2.3275,-2.334,-2.3364,-2.3411,-2.3492,-2.3564,-2.3574,-2.3605,-2.3633,-2.364,-2.3497,-2.3478,-2.3461,-2.3436,-2.3639,-2.3639,-2.3787,-2.3788,-2.3789]},{"header":{"parameterUnit":"m.s-1","parameterCategory":1,"la1":30.2991,"la2":30.254,"lo1":-89.0895,"lo2":-89.0444,"dx":0.0017,"dy":0.0017,"nx":28,"ny":28,"refTime":"2022-11-21T15:00:00:Z","depth":0,"parameterNumber":3,"parameterNumberName":"V-component_of_WINDS"},"data":[0,0,0,0,0,0,0,0,0,0,0,0,0,0,0,0,0,0,0,0,0,0,0,0,0,0,0,0,0,0,0,0,0,0,0,0,0,0,0,0,0,0,0,0,0,0,0,0,0,0,0,0,0,0,0,0,0,0,-4.0482,-4.0483,0,-4.0535,-4.0536,-4.0536,-4.0467,-4.0464,-4.0462,-4.0459,-4.051,-4.0514,-4.0518,0,0,0,0,0,0,0,0,0,0,0,0,0,-4.0318,-4.0321,-4.0482,-4.0483,-4.0484,-4.0535,-4.0536,-4.0537,-4.0467,-4.0464,-4.0461,-4.0458,-4.0509,-4.0513,-4.0518,0,0,0,0,0,0,0,0,0,0,0,0,0,-4.0382,-4.0322,-4.0482,-4.0455,-4.0453,-4.0535,-4.0536,-4.0537,-4.0468,-4.0464,-4.046,-4.0457,-4.0508,-4.0513,-4.0518,-4.0628,0,0,-4.0535,-4.0538,0,0,0,0,0,0,0,0,-4.0378,-4.0388,-4.0459,-4.0457,-4.0455,-4.0491,-4.0496,-4.0567,-4.0469,-4.0462,-4.0459,-4.0455,-4.0507,-4.0512,-4.053,-4.063,-4.0632,-4.0536,-4.0539,-4.0542,-4.0543,0,0,0,0,0,0,0,-4.0374,-4.0385,-4.0503,-4.046,-4.0458,-4.0439,-4.0444,-4.0509,-4.0505,-4.0463,-4.0458,-4.0465,-4.0505,-4.0525,-4.0531,-4.0633,-4.0536,-4.0541,-4.0544,-4.0546,-4.0825,-4.0829,0,0,0,0,0,0,-4.0373,-4.0382,-4.0501,-4.0505,-4.0407,-4.0446,-4.0451,-4.0483,-4.0504,-4.0504,-4.0468,-4.0462,-4.0517,-4.0524,-4.0532,-4.0662,-4.0542,-4.0547,-4.055,-4.0821,-4.0826,-4.0831,0,0,0,0,0,0,-4.037,-4.0384,-4.0499,-4.0442,-4.0455,-4.0452,-4.0489,-4.0486,-4.0506,-4.0508,-4.0507,-4.049,-4.0515,-4.0524,-4.0605,-4.0663,-4.0549,-4.0554,-4.0817,-4.0823,-4.0829,-4.0922,0,0,0,0,0,0,-4.0365,-4.0384,-4.0426,-4.0444,-4.0459,-4.0573,-4.0492,-4.049,-4.0516,-4.0508,-4.0528,-4.0528,-4.0512,-4.0597,-4.061,-4.0668,-4.0559,-4.0811,-4.0819,-4.0827,-4.0914,-4.0931,-4.0945,0,0,0,0,0,-4.036,-4.045,-4.0429,-4.0443,-4.0512,-4.0576,-4.0584,-4.0566,-4.0521,-4.0563,-4.0564,-4.0527,-4.0654,-4.0606,-4.062,-4.0681,-4.0808,-4.0817,-4.0826,-4.0907,-4.0928,-4.0945,0,0,0,0,0,0,-4.0438,-4.0451,-4.0428,-4.0527,-4.0551,-4.0564,-4.0617,-4.0588,-4.0625,-4.0616,-4.059,-4.0595,-4.0681,-4.0688,-4.0635,-4.0788,-4.0723,-4.0736,-4.078,-4.0799,-4.0815,-4.0811,-4.0563,0,0,0,0,0,-4.0467,-4.0519,-4.0527,-4.0613,-4.0627,-4.062,-4.0647,-4.0631,-4.0654,-4.0664,-4.0671,-4.0694,-4.0739,-4.0769,-4.0811,-4.0914,-4.0918,-4.0963,-4.0979,-4.0991,-4.1003,-4.1058,-4.1078,-4.0861,-4.0861,-4.0861,0,0,-4.0526,-4.054,-4.0574,-4.0629,-4.0646,-4.07,-4.0629,-4.0688,-4.0728,-4.0672,-4.0749,-4.0755,-4.0779,-4.0872,-4.0913,-4.0881,-4.1063,-4.1003,-4.1014,-4.1018,-4.107,-4.109,-4.1109,-4.0867,-4.0866,-4.0865,0,0,-4.0663,-4.0679,-4.0752,-4.0771,-4.0798,-4.0793,-4.081,-4.0828,-4.083,-4.0907,-4.0867,-4.0912,-4.0991,-4.101,-4.103,-4.1174,-4.114,-4.1188,-4.127,-4.1324,-4.1341,-4.1356,-4.1407,-4.1426,-4.1199,-4.1199,-4.1199,0,-4.0734,-4.0814,-4.0793,-4.0857,-4.0882,-4.0835,-4.0909,-4.0927,-4.0966,-4.0984,-4.0947,-4.1045,-4.1058,-4.1154,-4.1189,-4.1207,-4.1226,-4.1186,-4.134,-4.1355,-4.1369,-4.1418,-4.1437,-4.1204,-4.1204,-4.1203,-4.1203,0,-4.09,-4.0956,-4.1012,-4.1052,-4.1083,-4.1151,-4.114,-4.1174,-4.1155,-4.1153,-4.1232,-4.1246,-4.1289,-4.1311,-4.1292,-4.1405,-4.1384,-4.1344,-4.1279,-4.1396,-4.1441,-4.146,-4.1213,-4.1211,-4.1209,-4.1207,0,0,-4.1087,-4.1116,-4.1136,-4.1154,-4.118,-4.1223,-4.1288,-4.1332,-4.1362,-4.1389,-4.1443,-4.1511,-4.1474,-4.1497,-4.148,-4.1528,-4.1641,-4.1482,-4.1482,-4.1511,-4.1766,-4.1796,-4.1818,-4.1619,-4.1622,-4.1625,-4.1764,0,-4.1224,-4.134,-4.1323,-4.1433,-4.1485,-4.1441,-4.1498,-4.152,-4.152,-4.1562,-4.1561,-4.161,-4.1558,-4.1572,-4.1617,-4.1618,-4.1692,-4.1607,-4.1668,-4.1671,-4.1665,-4.1842,-4.1874,-4.2005,-4.1781,-4.1784,-4.1787,0,-4.14,-4.1436,-4.1552,-4.157,-4.1591,-4.1643,-4.1682,-4.1724,-4.1747,-4.1743,-4.1769,-4.1743,-4.1808,-4.1741,-4.1829,-4.1772,-4.1796,-4.18,-4.1805,-4.181,-4.1736,-4.1853,-4.2046,-4.2066,-4.1814,-4.1812,-4.181,0,-4.1526,-4.1603,-4.1683,-4.1699,-4.1722,-4.176,-4.1771,-4.179,-4.1818,-4.1851,-4.1869,-4.1909,-4.1931,-4.1962,-4.1947,-4.19,-4.2038,-4.197,-4.2037,-4.2037,-4.2068,-4.2067,-4.2269,-4.2083,-4.2082,-4.2082,-4.2082,0,-4.1681,-4.1754,-4.174,-4.1789,-4.1869,-4.1848,-4.1927,-4.1933,-4.1951,-4.1999,-4.1963,-4.2009,-4.1986,-4.2031,-4.2019,-4.2094,-4.2104,-4.2102,-4.2099,-4.2106,-4.2107,-4.2122,-4.2113,-4.2087,-4.2086,-4.2085,-4.2084,0,-4.1836,-4.1829,-4.1913,-4.1929,-4.1934,-4.1993,-4.2005,-4.205,-4.2047,-4.2109,-4.2122,-4.2118,-4.2168,-4.2156,-4.221,-4.2203,-4.2297,-4.2281,-4.229,-4.2286,-4.2354,-4.2348,-4.2573,-4.2601,-4.2397,-4.2399,-4.24,0,-4.1936,-4.1991,-4.2013,-4.2044,-4.2058,-4.2108,-4.2136,-4.2117,-4.2148,-4.2178,-4.222,-4.2267,-4.2304,-4.2385,-4.2386,-4.2427,-4.2413,-4.2489,-4.2419,-4.2425,-4.2414,-4.2412,-4.2417,-4.2503,-4.2505,-4.2507,-4.2509,0,-4.2114,-4.2109,-4.2151,-4.2194,-4.2229,-4.2261,-4.2289,-4.2315,-4.2299,-4.2335,-4.2386,-4.2415,-4.2471,-4.2518,-4.2556,-4.2565,-4.2535,-4.2531,-4.2548,-4.2557,-4.256,-4.256,-4.2329,-4.2526,-4.2524,-4.2523,-4.2522,-4.2521,-4.2245,-4.2292,-4.2316,-4.2364,-4.2384,-4.2411,-4.2455,-4.2458,-4.2501,-4.2546,-4.2532,-4.259,-4.2611,-4.2659,-4.2674,-4.2719,-4.269,-4.2715,-4.2722,-4.2729,-4.2737,-4.2553,-4.2725,-4.2725,-4.2724,-4.2724,-4.2723,0,-4.2422,-4.2435,-4.248,-4.2522,-4.256,-4.2528,-4.2558,-4.2592,-4.2644,-4.2667,-4.2704,-4.2763,-4.2809,-4.2813,-4.2855,-4.289,-4.2877,-4.2902,-4.29,-4.2903,-4.276,-4.2741,-4.2912,-4.2912,-4.2912,-4.2912,-4.2912,-4.2912,-4.2519,-4.2597,-4.2594,-4.2682,-4.2693,-4.2752,-4.2771,-4.2796,-4.2814,-4.2882,-4.292,-4.2923,-4.2938,-4.2981,-4.3021,-4.3021,-4.3039,-4.3069,-4.3064,-4.2931,-4.2912,-4.2895,-4.2877,-4.3073,-4.3073,-4.3202,-4.3204,-4.3205]}]]